{"data":{"norad_id":62289,"intl_designator":"2024-237Y","name":"STARLINK-33549","alt_names":[],"object_type":"PAYLOAD","status":"ACTIVE","operator":null,"country":"US","launch_date":"2024-12-08","launch_site_code":"AFETR","launch_vehicle":null,"mission":null,"orbit_class":"UNKNOWN","rcs_meters":null,"size_class":null,"mass_kg":null,"dimensions":null,"purposes":["comms"],"wikipedia_slug":null,"has_3d_model":false,"image_url":null,"decayed_at":null,"tle_current":{"epoch":"2026-05-25T00:29:52.368000Z","epoch_age_seconds":69783,"freshness":"FRESH","line1":"1 62289U 24237Y   26145.02074500  .00017989  00000+0  66161-3 0  9997","line2":"2 62289  42.9982 145.4660 0000721 264.1257  95.9512 15.27581499 82862","mean_motion":15.27581499,"eccentricity":7.21e-5,"inclination_deg":42.9982,"raan_deg":145.466,"arg_perigee_deg":264.1257,"mean_anomaly_deg":95.9512,"bstar":0.00066161,"rev_number":8286,"period_min":94.266656210662,"perigee_km":482.54991630416,"apogee_km":483.53929869196,"semimajor_km":6861.1816074981,"source":"CELESTRAK","updated_at":"2026-05-25T13:38:19.646731Z"}}}